Time,TemperatureF,DewpointF,PressureIn,WindDirection,WindDirectionDegrees,WindSpeedMPH,WindSpeedGustMPH,Humidity,HourlyPrecipIn,Conditions,Clouds,dailyrainin,SoftwareType,DateUTC
2013-03-07 00:00:00,58.0,28.9,27.31,ESE,113,0.9,1.8,33,0.00,,,0.00,WUHU216HW,2013-03-07 07:00:00,
2013-03-07 00:05:00,57.8,28.7,27.31,ENE,68,2.2,2.2,33,0.00,,,0.00,WUHU216HW,2013-03-07 07:05:00,
2013-03-07 00:10:00,57.6,29.3,27.31,ESE,113,0.4,2.2,34,0.00,,,0.00,WUHU216HW,2013-03-07 07:10:00,
2013-03-07 00:15:00,57.4,29.1,27.31,East,90,1.1,2.2,34,0.00,,,0.00,WUHU216HW,2013-03-07 07:15:00,
2013-03-07 00:20:00,57.2,28.2,27.31,East,90,0.4,2.0,33,0.00,,,0.00,WUHU216HW,2013-03-07 07:20:00,
2013-03-07 00:25:00,57.1,28.7,27.31,ESE,113,1.3,1.3,34,0.00,,,0.00,WUHU216HW,2013-03-07 07:25:00,
2013-03-07 00:30:00,57.1,28.1,27.31,East,90,0.9,1.8,33,0.00,,,0.00,WUHU216HW,2013-03-07 07:30:00,
2013-03-07 00:35:00,56.9,28.6,27.31,ESE,113,0.0,1.8,34,0.00,,,0.00,WUHU216HW,2013-03-07 07:35:00,
2013-03-07 00:40:00,56.9,28.6,27.31,ESE,113,1.8,1.8,34,0.00,,,0.00,WUHU216HW,2013-03-07 07:40:00,
2013-03-07 00:45:00,56.7,28.5,27.31,NE,45,0.9,1.8,34,0.00,,,0.00,WUHU216HW,2013-03-07 07:45:00,
2013-03-07 00:50:00,56.3,28.1,27.31,ESE,113,0.4,2.0,34,0.00,,,0.00,WUHU216HW,2013-03-07 07:50:00,
2013-03-07 00:55:00,56.0,29.2,27.31,East,90,1.3,2.2,36,0.00,,,0.00,WUHU216HW,2013-03-07 07:55:00,
2013-03-07 01:00:00,55.8,29.0,27.31,East,90,0.4,2.2,36,0.00,,,0.00,WUHU216HW,2013-03-07 08:00:00,
2013-03-07 01:05:00,55.6,28.9,27.31,ESE,113,1.1,2.5,36,0.00,,,0.00,WUHU216HW,2013-03-07 08:05:00,
2013-03-07 01:10:00,55.4,29.4,27.31,East,90,0.4,2.5,37,0.00,,,0.00,WUHU216HW,2013-03-07 08:10:00,
2013-03-07 01:15:00,55.4,28.7,27.31,ENE,68,1.1,2.0,36,0.00,,,0.00,WUHU216HW,2013-03-07 08:15:00,
2013-03-07 01:20:00,55.4,29.4,27.31,East,90,0.9,2.0,37,0.00,,,0.00,WUHU216HW,2013-03-07 08:20:00,
2013-03-07 01:25:00,55.6,28.9,27.31,ESE,113,1.3,1.8,36,0.00,,,0.00,WUHU216HW,2013-03-07 08:25:00,
2013-03-07 01:30:00,55.6,28.9,27.30,East,90,0.4,1.6,36,0.00,,,0.00,WUHU216HW,2013-03-07 08:30:00,
2013-03-07 01:35:00,55.4,28.7,27.30,East,90,0.2,1.6,36,0.00,,,0.00,WUHU216HW,2013-03-07 08:35:00,
2013-03-07 01:40:00,55.1,28.4,27.30,East,90,0.4,1.1,36,0.00,,,0.00,WUHU216HW,2013-03-07 08:40:00,
2013-03-07 01:45:00,54.9,28.9,27.30,NE,45,0.9,2.9,37,0.00,,,0.00,WUHU216HW,2013-03-07 08:45:00,
2013-03-07 01:50:00,55.1,29.1,27.30,ENE,68,1.3,2.9,37,0.00,,,0.00,WUHU216HW,2013-03-07 08:50:00,
2013-03-07 01:55:00,54.9,28.9,27.30,ENE,68,1.8,2.5,37,0.00,,,0.00,WUHU216HW,2013-03-07 08:55:00,
2013-03-07 02:00:00,54.7,29.4,27.30,ENE,68,1.6,2.5,38,0.00,,,0.00,WUHU216HW,2013-03-07 09:00:00,
2013-03-07 02:05:00,54.5,28.6,27.30,ESE,113,1.6,2.7,37,0.00,,,0.00,WUHU216HW,2013-03-07 09:05:00,
2013-03-07 02:10:00,54.4,29.2,27.30,East,90,1.8,2.7,38,0.00,,,0.00,WUHU216HW,2013-03-07 09:10:00,
2013-03-07 02:15:00,54.4,29.2,27.30,ESE,113,1.8,3.8,38,0.00,,,0.00,WUHU216HW,2013-03-07 09:15:00,
2013-03-07 02:20:00,54.4,29.2,27.30,NE,45,1.3,3.8,38,0.00,,,0.00,WUHU216HW,2013-03-07 09:20:00,
2013-03-07 02:25:00,54.4,29.2,27.30,ESE,113,1.3,2.7,38,0.00,,,0.00,WUHU216HW,2013-03-07 09:25:00,
2013-03-07 02:30:00,54.2,29.0,27.30,SE,135,0.4,2.5,38,0.00,,,0.00,WUHU216HW,2013-03-07 09:30:00,
2013-03-07 02:35:00,54.0,29.5,27.30,ESE,113,0.9,2.5,39,0.00,,,0.00,WUHU216HW,2013-03-07 09:35:00,
2013-03-07 02:40:00,54.0,29.5,27.30,ENE,68,0.9,2.5,39,0.00,,,0.00,WUHU216HW,2013-03-07 09:40:00,
2013-03-07 02:45:00,53.6,29.2,27.29,ESE,113,0.2,1.8,39,0.00,,,0.00,WUHU216HW,2013-03-07 09:45:00,
2013-03-07 02:50:00,53.6,29.2,27.29,ENE,68,1.6,2.2,39,0.00,,,0.00,WUHU216HW,2013-03-07 09:50:00,
2013-03-07 02:55:00,53.5,29.7,27.29,ESE,113,1.1,2.2,40,0.00,,,0.00,WUHU216HW,2013-03-07 09:55:00,
2013-03-07 03:00:00,53.6,29.2,27.29,NE,45,2.7,3.4,39,0.00,,,0.00,WUHU216HW,2013-03-07 10:00:00,
2013-03-07 03:05:00,53.3,29.5,27.29,East,90,1.8,3.6,40,0.00,,,0.00,WUHU216HW,2013-03-07 10:05:00,
2013-03-07 03:10:00,53.1,29.4,27.29,ESE,113,1.1,3.6,40,0.00,,,0.00,WUHU216HW,2013-03-07 10:10:00,
2013-03-07 03:15:00,52.9,29.3,27.29,SE,135,1.6,2.9,40,0.00,,,0.00,WUHU216HW,2013-03-07 10:15:00,
2013-03-07 03:20:00,52.7,29.6,27.29,ENE,68,2.5,3.1,41,0.00,,,0.00,WUHU216HW,2013-03-07 10:20:00,
2013-03-07 03:25:00,52.7,29.6,27.28,East,90,1.1,3.1,41,0.00,,,0.00,WUHU216HW,2013-03-07 10:25:00,
2013-03-07 03:30:00,52.6,28.9,27.28,ESE,113,0.4,2.9,40,0.00,,,0.00,WUHU216HW,2013-03-07 10:30:00,
2013-03-07 03:35:00,52.7,29.1,27.28,ESE,113,0.0,2.2,40,0.00,,,0.00,WUHU216HW,2013-03-07 10:35:00,
2013-03-07 03:40:00,52.7,29.1,27.28,SE,135,1.1,2.2,40,0.00,,,0.00,WUHU216HW,2013-03-07 10:40:00,
2013-03-07 03:45:00,52.7,29.1,27.28,ESE,113,1.1,2.2,40,0.00,,,0.00,WUHU216HW,2013-03-07 10:45:00,
2013-03-07 03:50:00,52.7,29.1,27.28,East,90,1.1,2.2,40,0.00,,,0.00,WUHU216HW,2013-03-07 10:50:00,
2013-03-07 03:55:00,52.7,29.1,27.28,ESE,113,1.3,1.8,40,0.00,,,0.00,WUHU216HW,2013-03-07 10:55:00,
2013-03-07 04:01:00,52.6,28.9,27.28,ESE,113,0.4,1.3,40,0.00,,,0.00,WUHU216HW,2013-03-07 11:01:00,
2013-03-07 04:06:00,52.6,28.9,27.29,ESE,113,0.4,1.3,40,0.00,,,0.00,WUHU216HW,2013-03-07 11:06:00,
2013-03-07 04:11:00,52.2,28.6,27.29,ESE,113,0.7,1.3,40,0.00,,,0.00,WUHU216HW,2013-03-07 11:11:00,
2013-03-07 04:15:00,52.2,28.6,27.29,ENE,68,1.1,1.6,40,0.00,,,0.00,WUHU216HW,2013-03-07 11:15:00,
2013-03-07 04:20:00,51.8,28.3,27.29,ESE,113,0.4,1.6,40,0.00,,,0.00,WUHU216HW,2013-03-07 11:20:00,
2013-03-07 04:25:00,51.5,27.9,27.29,SE,135,0.0,1.1,40,0.00,,,0.00,WUHU216HW,2013-03-07 11:25:00,
2013-03-07 04:30:00,51.1,28.2,27.29,SE,135,0.0,0.9,41,0.00,,,0.00,WUHU216HW,2013-03-07 11:30:00,
2013-03-07 04:35:00,50.8,27.8,27.29,ENE,68,1.1,1.1,41,0.00,,,0.00,WUHU216HW,2013-03-07 11:35:00,
2013-03-07 04:40:00,50.8,27.8,27.30,East,90,0.4,1.8,41,0.00,,,0.00,WUHU216HW,2013-03-07 11:40:00,
2013-03-07 04:45:00,50.8,27.8,27.30,East,90,1.1,1.8,41,0.00,,,0.00,WUHU216HW,2013-03-07 11:45:00,
2013-03-07 04:50:00,50.8,27.8,27.30,ESE,113,0.0,1.8,41,0.00,,,0.00,WUHU216HW,2013-03-07 11:50:00,
2013-03-07 04:55:00,50.8,27.8,27.30,SE,135,0.4,1.8,41,0.00,,,0.00,WUHU216HW,2013-03-07 11:55:00,
2013-03-07 05:01:00,51.1,28.2,27.30,ESE,113,1.1,1.6,41,0.00,,,0.00,WUHU216HW,2013-03-07 12:01:00,
2013-03-07 05:06:00,51.7,28.6,27.30,ESE,113,0.4,1.6,41,0.00,,,0.00,WUHU216HW,2013-03-07 12:06:00,
2013-03-07 05:11:00,52.2,28.6,27.30,SSE,158,2.7,2.7,40,0.00,,,0.00,WUHU216HW,2013-03-07 12:11:00,
2013-03-07 05:15:00,52.9,28.5,27.30,SE,135,1.1,2.7,39,0.00,,,0.00,WUHU216HW,2013-03-07 12:15:00,
2013-03-07 05:20:00,53.1,28.7,27.30,ENE,68,0.4,2.7,39,0.00,,,0.00,WUHU216HW,2013-03-07 12:20:00,
2013-03-07 05:25:00,53.3,28.2,27.30,SE,135,1.3,2.0,38,0.00,,,0.00,WUHU216HW,2013-03-07 12:25:00,
2013-03-07 05:30:00,53.1,28.0,27.31,SE,135,0.0,2.0,38,0.00,,,0.00,WUHU216HW,2013-03-07 12:30:00,
2013-03-07 05:35:00,52.7,27.7,27.31,ENE,68,1.3,1.6,38,0.00,,,0.00,WUHU216HW,2013-03-07 12:35:00,
2013-03-07 05:41:00,52.7,28.4,27.31,ESE,113,1.1,2.5,39,0.00,,,0.00,WUHU216HW,2013-03-07 12:41:00,
2013-03-07 05:46:00,52.6,28.3,27.31,ESE,113,0.9,2.5,39,0.00,,,0.00,WUHU216HW,2013-03-07 12:46:00,
2013-03-07 05:51:00,52.2,28.6,27.31,ESE,113,1.3,2.5,40,0.00,,,0.00,WUHU216HW,2013-03-07 12:51:00,
2013-03-07 05:56:00,52.0,28.5,27.31,East,90,0.7,2.0,40,0.00,,,0.00,WUHU216HW,2013-03-07 12:56:00,
2013-03-07 06:01:00,51.8,28.8,27.31,ESE,113,1.1,2.0,41,0.00,,,0.00,WUHU216HW,2013-03-07 13:01:00,
2013-03-07 06:06:00,51.8,28.3,27.31,East,90,1.1,2.0,40,0.00,,,0.00,WUHU216HW,2013-03-07 13:06:00,
2013-03-07 06:11:00,51.8,28.8,27.31,SE,135,0.4,2.0,41,0.00,,,0.00,WUHU216HW,2013-03-07 13:11:00,
2013-03-07 06:16:00,52.2,28.6,27.31,ENE,68,1.3,1.6,40,0.00,,,0.00,WUHU216HW,2013-03-07 13:16:00,
2013-03-07 06:21:00,52.4,28.1,27.31,ESE,113,0.2,1.6,39,0.00,,,0.00,WUHU216HW,2013-03-07 13:21:00,
2013-03-07 06:26:00,52.7,28.4,27.31,SE,135,1.3,1.6,39,0.00,,,0.00,WUHU216HW,2013-03-07 13:26:00,
2013-03-07 06:31:00,52.9,27.9,27.31,SE,135,0.4,1.6,38,0.00,,,0.00,WUHU216HW,2013-03-07 13:31:00,
2013-03-07 06:36:00,53.1,28.0,27.31,East,90,0.4,1.3,38,0.00,,,0.00,WUHU216HW,2013-03-07 13:36:00,
2013-03-07 06:41:00,53.1,28.0,27.31,ENE,68,1.1,1.6,38,0.00,,,0.00,WUHU216HW,2013-03-07 13:41:00,
2013-03-07 06:46:00,52.9,27.9,27.31,ENE,68,0.7,2.2,38,0.00,,,0.00,WUHU216HW,2013-03-07 13:46:00,
2013-03-07 06:51:00,52.6,28.3,27.32,ENE,68,1.1,2.2,39,0.00,,,0.00,WUHU216HW,2013-03-07 13:51:00,
2013-03-07 06:56:00,52.0,27.7,27.32,East,90,0.4,1.8,39,0.00,,,0.00,WUHU216HW,2013-03-07 13:56:00,
2013-03-07 07:01:00,51.8,28.8,27.32,SE,135,1.6,1.6,41,0.00,,,0.00,WUHU216HW,2013-03-07 14:01:00,
2013-03-07 07:06:00,51.5,28.5,27.32,East,90,0.7,1.6,41,0.00,,,0.00,WUHU216HW,2013-03-07 14:06:00,
2013-03-07 07:11:00,51.5,29.1,27.33,East,90,0.9,3.4,42,0.00,,,0.00,WUHU216HW,2013-03-07 14:11:00,
2013-03-07 07:16:00,51.7,28.6,27.33,ESE,113,2.0,3.4,41,0.00,,,0.00,WUHU216HW,2013-03-07 14:16:00,
2013-03-07 07:21:00,51.5,29.1,27.33,ESE,113,0.9,2.2,42,0.00,,,0.00,WUHU216HW,2013-03-07 14:21:00,
2013-03-07 07:26:00,51.5,29.1,27.33,ESE,113,0.7,2.2,42,0.00,,,0.00,WUHU216HW,2013-03-07 14:26:00,
2013-03-07 07:31:00,51.7,29.8,27.33,East,90,3.4,3.4,43,0.00,,,0.00,WUHU216HW,2013-03-07 14:31:00,
2013-03-07 07:36:00,52.4,29.9,27.33,ESE,113,3.1,4.0,42,0.00,,,0.00,WUHU216HW,2013-03-07 14:36:00,
2013-03-07 07:41:00,52.9,29.8,27.33,NE,45,2.7,4.0,41,0.00,,,0.00,WUHU216HW,2013-03-07 14:41:00,
2013-03-07 07:46:00,53.1,29.4,27.33,NE,45,1.1,4.0,40,0.00,,,0.00,WUHU216HW,2013-03-07 14:46:00,
2013-03-07 07:51:00,53.3,29.5,27.34,NE,45,2.9,3.1,40,0.00,,,0.00,WUHU216HW,2013-03-07 14:51:00,
2013-03-07 07:56:00,53.5,29.7,27.34,ESE,113,1.6,2.9,40,0.00,,,0.00,WUHU216HW,2013-03-07 14:56:00,
2013-03-07 08:01:00,53.6,29.9,27.34,East,90,0.4,2.9,40,0.00,,,0.00,WUHU216HW,2013-03-07 15:01:00,
2013-03-07 08:06:00,54.0,30.3,27.34,East,90,1.8,2.5,40,0.00,,,0.00,WUHU216HW,2013-03-07 15:06:00,
2013-03-07 08:11:00,54.4,30.5,27.33,ESE,113,1.8,2.9,40,0.00,,,0.00,WUHU216HW,2013-03-07 15:11:00,
2013-03-07 08:16:00,54.9,30.3,27.33,ESE,113,2.5,3.1,39,0.00,,,0.00,WUHU216HW,2013-03-07 15:16:00,
2013-03-07 08:21:00,55.4,30.8,27.34,ESE,113,1.8,3.6,39,0.00,,,0.00,WUHU216HW,2013-03-07 15:21:00,
2013-03-07 08:26:00,55.8,30.4,27.34,ENE,68,1.8,3.6,38,0.00,,,0.00,WUHU216HW,2013-03-07 15:26:00,
2013-03-07 08:31:00,56.0,30.6,27.34,East,90,1.6,3.1,38,0.00,,,0.00,WUHU216HW,2013-03-07 15:31:00,
2013-03-07 08:36:00,56.5,30.3,27.34,East,90,2.2,3.6,37,0.00,,,0.00,WUHU216HW,2013-03-07 15:36:00,
2013-03-07 08:41:00,57.1,30.9,27.34,ESE,113,0.7,3.6,37,0.00,,,0.00,WUHU216HW,2013-03-07 15:41:00,
2013-03-07 08:47:00,57.6,30.6,27.34,ESE,113,0.7,2.7,36,0.00,,,0.00,WUHU216HW,2013-03-07 15:47:00,
2013-03-07 08:52:00,58.0,31.0,27.34,ENE,68,0.9,2.7,36,0.00,,,0.00,WUHU216HW,2013-03-07 15:52:00,
2013-03-07 08:57:00,58.3,31.3,27.34,ESE,113,1.1,1.8,36,0.00,,,0.00,WUHU216HW,2013-03-07 15:57:00,
2013-03-07 09:02:00,58.9,30.3,27.34,ESE,113,4.3,4.3,34,0.00,,,0.00,WUHU216HW,2013-03-07 16:02:00,
2013-03-07 09:07:00,59.6,30.2,27.34,ESE,113,1.3,4.3,33,0.00,,,0.00,WUHU216HW,2013-03-07 16:07:00,
2013-03-07 09:12:00,60.1,30.7,27.34,ESE,113,1.1,3.4,33,0.00,,,0.00,WUHU216HW,2013-03-07 16:12:00,
2013-03-07 09:17:00,60.7,31.1,27.34,ESE,113,1.1,2.2,33,0.00,,,0.00,WUHU216HW,2013-03-07 16:17:00,
2013-03-07 09:22:00,60.8,31.3,27.34,East,90,1.1,3.1,33,0.00,,,0.00,WUHU216HW,2013-03-07 16:22:00,
2013-03-07 09:27:00,61.6,31.2,27.34,ESE,113,0.9,3.1,32,0.00,,,0.00,WUHU216HW,2013-03-07 16:27:00,
2013-03-07 09:32:00,62.1,31.1,27.34,ESE,113,1.1,2.5,31,0.00,,,0.00,WUHU216HW,2013-03-07 16:32:00,
2013-03-07 09:37:00,62.6,30.8,27.34,ENE,68,2.0,2.9,30,0.00,,,0.00,WUHU216HW,2013-03-07 16:37:00,
2013-03-07 09:42:00,62.8,31.0,27.34,ESE,113,0.7,2.9,30,0.00,,,0.00,WUHU216HW,2013-03-07 16:42:00,
2013-03-07 09:47:00,63.2,31.2,27.34,East,90,1.1,3.1,30,0.00,,,0.00,WUHU216HW,2013-03-07 16:47:00,
2013-03-07 09:52:00,63.7,30.8,27.34,SE,135,2.0,3.1,29,0.00,,,0.00,WUHU216HW,2013-03-07 16:52:00,
2013-03-07 09:57:00,64.1,31.1,27.34,SW,225,0.4,2.2,29,0.00,,,0.00,WUHU216HW,2013-03-07 16:57:00,
2013-03-07 10:02:00,64.3,31.2,27.34,ESE,113,0.2,2.2,29,0.00,,,0.00,WUHU216HW,2013-03-07 17:02:00,
2013-03-07 10:07:00,64.4,31.4,27.34,East,90,0.4,2.2,29,0.00,,,0.00,WUHU216HW,2013-03-07 17:07:00,
2013-03-07 10:12:00,64.6,31.6,27.34,ESE,113,2.2,3.1,29,0.00,,,0.00,WUHU216HW,2013-03-07 17:12:00,
2013-03-07 10:17:00,65.5,31.4,27.34,NE,45,3.8,5.1,28,0.00,,,0.00,WUHU216HW,2013-03-07 17:17:00,
2013-03-07 10:22:00,65.9,31.7,27.34,NNE,23,0.4,5.1,28,0.00,,,0.00,WUHU216HW,2013-03-07 17:22:00,
2013-03-07 10:27:00,65.9,31.7,27.34,NE,45,1.8,2.5,28,0.00,,,0.00,WUHU216HW,2013-03-07 17:27:00,
2013-03-07 10:32:00,66.2,31.0,27.34,ENE,68,0.7,2.7,27,0.00,,,0.00,WUHU216HW,2013-03-07 17:32:00,
2013-03-07 10:37:00,66.6,30.3,27.34,ENE,68,0.4,2.7,26,0.00,,,0.00,WUHU216HW,2013-03-07 17:37:00,
2013-03-07 10:42:00,66.6,30.3,27.34,East,90,1.1,3.4,26,0.00,,,0.00,WUHU216HW,2013-03-07 17:42:00,
2013-03-07 10:47:00,67.1,30.8,27.34,NNW,338,0.2,3.4,26,0.00,,,0.00,WUHU216HW,2013-03-07 17:47:00,
2013-03-07 10:52:00,67.5,31.1,27.33,ESE,113,1.1,2.5,26,0.00,,,0.00,WUHU216HW,2013-03-07 17:52:00,
2013-03-07 10:57:00,68.0,31.5,27.34,ESE,113,1.1,2.5,26,0.00,,,0.00,WUHU216HW,2013-03-07 17:57:00,
2013-03-07 11:02:00,69.1,31.4,27.33,ENE,68,2.5,3.8,25,0.00,,,0.00,WUHU216HW,2013-03-07 18:02:00,
2013-03-07 11:07:00,70.7,31.8,27.33,North,0,0.2,3.8,24,0.00,,,0.00,WUHU216HW,2013-03-07 18:07:00,
2013-03-07 11:12:00,74.3,31.8,27.33,SE,135,0.9,3.1,21,0.00,,,0.00,WUHU216HW,2013-03-07 18:12:00,
2013-03-07 11:17:00,76.9,29.5,27.33,East,90,2.9,5.4,18,0.00,,,0.00,WUHU216HW,2013-03-07 18:17:00,
2013-03-07 11:22:00,78.3,30.6,27.33,SE,135,2.7,5.4,18,0.00,,,0.00,WUHU216HW,2013-03-07 18:22:00,
2013-03-07 11:27:00,78.8,29.3,27.33,East,90,3.6,4.0,17,0.00,,,0.00,WUHU216HW,2013-03-07 18:27:00,
2013-03-07 11:32:00,79.4,29.8,27.33,West,270,3.4,4.5,17,0.00,,,0.00,WUHU216HW,2013-03-07 18:32:00,
2013-03-07 11:37:00,79.9,30.3,27.33,NNE,23,1.8,4.7,17,0.00,,,0.00,WUHU216HW,2013-03-07 18:37:00,
2013-03-07 11:42:00,80.5,29.1,27.33,SE,135,0.9,4.7,16,0.00,,,0.00,WUHU216HW,2013-03-07 18:42:00,
2013-03-07 11:47:00,81.2,28.0,27.33,ENE,68,3.4,6.0,15,0.00,,,0.00,WUHU216HW,2013-03-07 18:47:00,
2013-03-07 11:52:00,80.6,29.3,27.33,East,90,3.6,6.0,16,0.00,,,0.00,WUHU216HW,2013-03-07 18:52:00,
2013-03-07 11:57:00,80.3,23.9,27.32,SSE,158,3.1,5.1,13,0.00,,,0.00,WUHU216HW,2013-03-07 18:57:00,
2013-03-07 12:02:00,79.7,26.8,27.32,South,180,1.8,4.3,15,0.00,,,0.00,WUHU216HW,2013-03-07 19:02:00,
2013-03-07 12:07:00,79.0,27.8,27.32,WSW,248,0.4,3.6,16,0.00,,,0.00,WUHU216HW,2013-03-07 19:07:00,
2013-03-07 12:12:00,79.9,26.9,27.32,South,180,1.8,5.4,15,0.00,,,0.00,WUHU216HW,2013-03-07 19:12:00,
2013-03-07 12:17:00,80.1,23.7,27.31,SW,225,3.8,5.4,13,0.00,,,0.00,WUHU216HW,2013-03-07 19:17:00,
2013-03-07 12:22:00,79.6,23.2,27.31,SSE,158,1.3,5.1,13,0.00,,,0.00,WUHU216HW,2013-03-07 19:22:00,
2013-03-07 12:28:00,79.6,26.7,27.31,ESE,113,1.3,4.9,15,0.00,,,0.00,WUHU216HW,2013-03-07 19:28:00,
2013-03-07 12:33:00,79.9,23.6,27.30,SSE,158,2.2,3.8,13,0.00,,,0.00,WUHU216HW,2013-03-07 19:33:00,
2013-03-07 12:38:00,79.6,21.6,27.30,SSW,203,2.7,7.6,12,0.00,,,0.00,WUHU216HW,2013-03-07 19:38:00,
2013-03-07 12:43:00,79.2,19.6,27.30,WSW,248,2.7,7.6,11,0.00,,,0.00,WUHU216HW,2013-03-07 19:43:00,
2013-03-07 12:48:00,78.8,19.4,27.30,NNW,338,5.8,8.9,11,0.00,,,0.00,WUHU216HW,2013-03-07 19:48:00,
2013-03-07 12:53:00,78.8,19.4,27.29,South,180,5.1,8.9,11,0.00,,,0.00,WUHU216HW,2013-03-07 19:53:00,
2013-03-07 12:58:00,78.7,19.2,27.29,WSW,248,4.7,6.9,11,0.00,,,0.00,WUHU216HW,2013-03-07 19:58:00,
2013-03-07 13:03:00,78.8,17.6,27.29,NNE,23,6.3,6.9,10,0.00,,,0.00,WUHU216HW,2013-03-07 20:03:00,
2013-03-07 13:08:00,78.5,17.4,27.29,South,180,2.9,7.4,10,0.00,,,0.00,WUHU216HW,2013-03-07 20:08:00,
2013-03-07 13:13:00,78.5,17.4,27.28,WSW,248,2.2,7.4,10,0.00,,,0.00,WUHU216HW,2013-03-07 20:13:00,
2013-03-07 13:18:00,78.5,17.4,27.28,ENE,68,4.0,8.9,10,0.00,,,0.00,WUHU216HW,2013-03-07 20:18:00,
2013-03-07 13:23:00,78.8,17.6,27.28,North,0,5.6,8.9,10,0.00,,,0.00,WUHU216HW,2013-03-07 20:23:00,
2013-03-07 13:28:00,78.5,17.4,27.28,SW,225,4.0,8.5,10,0.00,,,0.00,WUHU216HW,2013-03-07 20:28:00,
2013-03-07 13:33:00,78.5,17.4,27.27,SE,135,4.5,8.5,10,0.00,,,0.00,WUHU216HW,2013-03-07 20:33:00,
2013-03-07 13:38:00,78.5,17.4,27.27,ESE,113,2.0,6.9,10,0.00,,,0.00,WUHU216HW,2013-03-07 20:38:00,
2013-03-07 13:43:00,78.7,17.6,27.27,WSW,248,4.3,5.8,10,0.00,,,0.00,WUHU216HW,2013-03-07 20:43:00,
2013-03-07 13:48:00,78.7,17.6,27.27,South,180,6.3,6.5,10,0.00,,,0.00,WUHU216HW,2013-03-07 20:48:00,
2013-03-07 13:53:00,78.3,17.3,27.27,South,180,6.5,6.5,10,0.00,,,0.00,WUHU216HW,2013-03-07 20:53:00,
2013-03-07 13:58:00,78.7,17.6,27.27,SE,135,2.2,6.5,10,0.00,,,0.00,WUHU216HW,2013-03-07 20:58:00,
2013-03-07 14:03:00,79.0,17.8,27.27,WSW,248,3.4,6.5,10,0.00,,,0.00,WUHU216HW,2013-03-07 21:03:00,
2013-03-07 14:08:00,78.8,17.6,27.27,NNW,338,4.0,6.9,10,0.00,,,0.00,WUHU216HW,2013-03-07 21:08:00,
2013-03-07 14:13:00,78.8,17.6,27.26,NNE,23,5.4,6.9,10,0.00,,,0.00,WUHU216HW,2013-03-07 21:13:00,
2013-03-07 14:18:00,79.2,17.9,27.26,WSW,248,5.6,5.6,10,0.00,,,0.00,WUHU216HW,2013-03-07 21:18:00,
2013-03-07 14:23:00,79.0,19.4,27.26,West,270,8.3,8.3,11,0.00,,,0.00,WUHU216HW,2013-03-07 21:23:00,
2013-03-07 14:28:00,79.0,19.4,27.26,SSW,203,3.4,8.3,11,0.00,,,0.00,WUHU216HW,2013-03-07 21:28:00,
2013-03-07 14:33:00,78.8,19.4,27.26,SE,135,3.1,8.3,11,0.00,,,0.00,WUHU216HW,2013-03-07 21:33:00,
2013-03-07 14:38:00,78.5,19.1,27.26,WNW,293,6.0,7.4,11,0.00,,,0.00,WUHU216HW,2013-03-07 21:38:00,
2013-03-07 14:43:00,78.3,18.9,27.26,SSW,203,6.3,7.4,11,0.00,,,0.00,WUHU216HW,2013-03-07 21:43:00,
2013-03-07 14:48:00,78.5,19.1,27.26,WSW,248,2.0,6.7,11,0.00,,,0.00,WUHU216HW,2013-03-07 21:48:00,
2013-03-07 14:53:00,78.8,19.4,27.26,ENE,68,5.1,6.9,11,0.00,,,0.00,WUHU216HW,2013-03-07 21:53:00,
2013-03-07 14:58:00,78.8,19.4,27.26,WSW,248,4.7,8.3,11,0.00,,,0.00,WUHU216HW,2013-03-07 21:58:00,
2013-03-07 15:03:00,79.2,19.6,27.26,SW,225,4.5,8.3,11,0.00,,,0.00,WUHU216HW,2013-03-07 22:03:00,
2013-03-07 15:08:00,79.0,19.4,27.26,ENE,68,3.8,9.8,11,0.00,,,0.00,WUHU216HW,2013-03-07 22:08:00,
2013-03-07 15:13:00,78.5,19.1,27.26,West,270,6.0,9.8,11,0.00,,,0.00,WUHU216HW,2013-03-07 22:13:00,
2013-03-07 15:18:00,78.3,18.9,27.26,SE,135,4.9,8.1,11,0.00,,,0.00,WUHU216HW,2013-03-07 22:18:00,
2013-03-07 15:23:00,78.5,19.1,27.25,WNW,293,4.7,6.9,11,0.00,,,0.00,WUHU216HW,2013-03-07 22:23:00,
2013-03-07 15:28:00,78.8,19.4,27.25,ENE,68,4.0,6.5,11,0.00,,,0.00,WUHU216HW,2013-03-07 22:28:00,
2013-03-07 15:33:00,78.8,19.4,27.25,WSW,248,4.3,8.5,11,0.00,,,0.00,WUHU216HW,2013-03-07 22:33:00,
2013-03-07 15:38:00,78.5,19.1,27.25,NW,315,4.7,8.5,11,0.00,,,0.00,WUHU216HW,2013-03-07 22:38:00,
2013-03-07 15:43:00,78.5,19.1,27.25,NW,315,5.6,6.3,11,0.00,,,0.00,WUHU216HW,2013-03-07 22:43:00,
2013-03-07 15:48:00,78.5,19.1,27.26,WNW,293,5.4,6.3,11,0.00,,,0.00,WUHU216HW,2013-03-07 22:48:00,
2013-03-07 15:53:00,78.5,20.7,27.26,ENE,68,3.6,6.3,12,0.00,,,0.00,WUHU216HW,2013-03-07 22:53:00,
2013-03-07 15:59:00,78.3,20.6,27.26,West,270,5.4,7.6,12,0.00,,,0.00,WUHU216HW,2013-03-07 22:59:00,
2013-03-07 16:04:00,78.1,20.4,27.26,SW,225,3.4,7.6,12,0.00,,,0.00,WUHU216HW,2013-03-07 23:04:00,
2013-03-07 16:09:00,77.9,20.3,27.26,WNW,293,3.4,6.9,12,0.00,,,0.00,WUHU216HW,2013-03-07 23:09:00,
2013-03-07 16:13:00,77.6,20.1,27.26,ESE,113,3.1,6.9,12,0.00,,,0.00,WUHU216HW,2013-03-07 23:13:00,
2013-03-07 16:18:00,77.8,20.3,27.26,West,270,3.4,6.5,12,0.00,,,0.00,WUHU216HW,2013-03-07 23:18:00,
2013-03-07 16:23:00,77.4,21.6,27.26,SSW,203,5.1,9.4,13,0.00,,,0.00,WUHU216HW,2013-03-07 23:23:00,
2013-03-07 16:28:00,77.4,21.6,27.26,NW,315,5.1,9.4,13,0.00,,,0.00,WUHU216HW,2013-03-07 23:28:00,
2013-03-07 16:33:00,77.4,21.6,27.26,NW,315,4.7,8.5,13,0.00,,,0.00,WUHU216HW,2013-03-07 23:33:00,
2013-03-07 16:38:00,77.4,21.6,27.26,NNW,338,4.7,8.5,13,0.00,,,0.00,WUHU216HW,2013-03-07 23:38:00,
2013-03-07 16:43:00,77.4,21.6,27.26,SSW,203,2.2,8.7,13,0.00,,,0.00,WUHU216HW,2013-03-07 23:43:00,
2013-03-07 16:48:00,77.4,21.6,27.26,SSW,203,7.4,10.5,13,0.00,,,0.00,WUHU216HW,2013-03-07 23:48:00,
2013-03-07 16:53:00,76.7,21.1,27.26,SW,225,4.3,10.5,13,0.00,,,0.00,WUHU216HW,2013-03-07 23:53:00,
2013-03-07 16:58:00,76.3,20.8,27.26,North,0,4.3,7.4,13,0.00,,,0.00,WUHU216HW,2013-03-07 23:58:00,
2013-03-07 17:03:00,76.0,20.5,27.26,WSW,248,6.0,6.5,13,0.00,,,0.00,WUHU216HW,2013-03-08 00:03:00,
2013-03-07 17:08:00,76.1,20.6,27.26,SSE,158,2.7,6.3,13,0.00,,,0.00,WUHU216HW,2013-03-08 00:08:00,
2013-03-07 17:14:00,76.1,20.6,27.26,NW,315,4.7,6.0,13,0.00,,,0.00,WUHU216HW,2013-03-08 00:14:00,
2013-03-07 17:19:00,76.0,20.5,27.26,SW,225,2.9,5.4,13,0.00,,,0.00,WUHU216HW,2013-03-08 00:19:00,
2013-03-07 17:24:00,75.6,20.2,27.26,NNE,23,3.1,5.4,13,0.00,,,0.00,WUHU216HW,2013-03-08 00:24:00,
2013-03-07 17:29:00,75.2,21.6,27.26,SSW,203,4.7,5.4,14,0.00,,,0.00,WUHU216HW,2013-03-08 00:29:00,
2013-03-07 17:34:00,75.1,23.1,27.26,WSW,248,4.9,6.9,15,0.00,,,0.00,WUHU216HW,2013-03-08 00:34:00,
2013-03-07 17:39:00,74.9,23.0,27.26,North,0,3.6,7.6,15,0.00,,,0.00,WUHU216HW,2013-03-08 00:39:00,
2013-03-07 17:44:00,74.7,22.9,27.26,SW,225,3.8,7.6,15,0.00,,,0.00,WUHU216HW,2013-03-08 00:44:00,
2013-03-07 17:49:00,74.5,22.7,27.26,SW,225,3.6,5.6,15,0.00,,,0.00,WUHU216HW,2013-03-08 00:49:00,
2013-03-07 17:54:00,74.2,22.4,27.26,South,180,3.6,4.9,15,0.00,,,0.00,WUHU216HW,2013-03-08 00:54:00,
2013-03-07 17:59:00,73.8,22.1,27.27,NNE,23,5.1,7.2,15,0.00,,,0.00,WUHU216HW,2013-03-08 00:59:00,
2013-03-07 18:04:00,73.8,22.1,27.27,SW,225,5.4,7.2,15,0.00,,,0.00,WUHU216HW,2013-03-08 01:04:00,
2013-03-07 18:09:00,73.4,21.9,27.27,SSW,203,3.6,6.0,15,0.00,,,0.00,WUHU216HW,2013-03-08 01:09:00,
2013-03-07 18:14:00,73.1,21.6,27.27,SE,135,4.0,6.0,15,0.00,,,0.00,WUHU216HW,2013-03-08 01:14:00,
2013-03-07 18:19:00,72.4,22.6,27.27,SW,225,3.4,5.8,16,0.00,,,0.00,WUHU216HW,2013-03-08 01:19:00,
2013-03-07 18:24:00,72.0,22.2,27.27,SW,225,4.7,6.3,16,0.00,,,0.00,WUHU216HW,2013-03-08 01:24:00,
2013-03-07 18:29:00,71.5,21.8,27.27,South,180,4.9,6.3,16,0.00,,,0.00,WUHU216HW,2013-03-08 01:29:00,
2013-03-07 18:34:00,71.1,23.1,27.28,WSW,248,3.8,4.9,17,0.00,,,0.00,WUHU216HW,2013-03-08 01:34:00,
2013-03-07 18:39:00,70.7,22.9,27.28,SE,135,3.6,4.9,17,0.00,,,0.00,WUHU216HW,2013-03-08 01:39:00,
2013-03-07 18:44:00,70.4,22.6,27.28,SSW,203,1.1,4.7,17,0.00,,,0.00,WUHU216HW,2013-03-08 01:44:00,
2013-03-07 18:49:00,70.0,22.3,27.28,SE,135,3.1,4.7,17,0.00,,,0.00,WUHU216HW,2013-03-08 01:49:00,
2013-03-07 18:54:00,69.8,23.8,27.28,SSW,203,2.5,3.8,18,0.00,,,0.00,WUHU216HW,2013-03-08 01:54:00,
2013-03-07 18:59:00,69.5,23.5,27.28,SSE,158,2.0,3.1,18,0.00,,,0.00,WUHU216HW,2013-03-08 01:59:00,
2013-03-07 19:04:00,69.1,23.2,27.29,NW,315,1.6,3.1,18,0.00,,,0.00,WUHU216HW,2013-03-08 02:04:00,
2013-03-07 19:09:00,68.8,24.6,27.28,SE,135,1.8,2.7,19,0.00,,,0.00,WUHU216HW,2013-03-08 02:09:00,
2013-03-07 19:14:00,68.4,24.2,27.28,SSE,158,1.8,2.5,19,0.00,,,0.00,WUHU216HW,2013-03-08 02:14:00,
2013-03-07 19:19:00,68.0,23.9,27.28,South,180,0.9,2.2,19,0.00,,,0.00,WUHU216HW,2013-03-08 02:19:00,
2013-03-07 19:24:00,67.7,23.7,27.28,SW,225,0.9,1.8,19,0.00,,,0.00,WUHU216HW,2013-03-08 02:24:00,
2013-03-07 19:29:00,67.3,23.3,27.29,SSE,158,0.2,1.8,19,0.00,,,0.00,WUHU216HW,2013-03-08 02:29:00,
2013-03-07 19:34:00,67.1,23.1,27.28,WSW,248,0.7,1.8,19,0.00,,,0.00,WUHU216HW,2013-03-08 02:34:00,
2013-03-07 19:39:00,66.8,24.4,27.28,SSW,203,0.0,1.3,20,0.00,,,0.00,WUHU216HW,2013-03-08 02:39:00,
2013-03-07 19:44:00,66.4,25.1,27.28,SE,135,0.9,1.1,21,0.00,,,0.00,WUHU216HW,2013-03-08 02:44:00,
2013-03-07 19:49:00,66.2,24.9,27.28,SE,135,0.7,1.3,21,0.00,,,0.00,WUHU216HW,2013-03-08 02:49:00,
2013-03-07 19:54:00,66.1,24.9,27.28,SE,135,0.2,1.3,21,0.00,,,0.00,WUHU216HW,2013-03-08 02:54:00,
2013-03-07 19:59:00,65.9,24.7,27.28,SE,135,0.4,0.9,21,0.00,,,0.00,WUHU216HW,2013-03-08 02:59:00,
2013-03-07 20:04:00,65.5,24.4,27.28,SE,135,0.2,0.9,21,0.00,,,0.00,WUHU216HW,2013-03-08 03:04:00,
2013-03-07 20:09:00,65.3,24.2,27.29,SE,135,0.0,0.4,21,0.00,,,0.00,WUHU216HW,2013-03-08 03:09:00,
2013-03-07 20:15:00,65.2,24.0,27.28,SE,135,0.0,0.7,21,0.00,,,0.00,WUHU216HW,2013-03-08 03:15:00,
2013-03-07 20:20:00,65.0,24.0,27.28,ESE,113,0.2,0.7,21,0.00,,,0.00,WUHU216HW,2013-03-08 03:20:00,
2013-03-07 20:25:00,64.8,24.8,27.28,ESE,113,0.0,0.9,22,0.00,,,0.00,WUHU216HW,2013-03-08 03:25:00,
2013-03-07 20:30:00,64.8,24.8,27.28,ESE,113,0.4,1.1,22,0.00,,,0.00,WUHU216HW,2013-03-08 03:30:00,
2013-03-07 20:35:00,64.6,24.7,27.29,ESE,113,1.1,1.1,22,0.00,,,0.00,WUHU216HW,2013-03-08 03:35:00,
2013-03-07 20:40:00,64.4,24.5,27.29,ESE,113,0.9,1.3,22,0.00,,,0.00,WUHU216HW,2013-03-08 03:40:00,
2013-03-07 20:45:00,64.4,24.5,27.29,ESE,113,0.4,1.3,22,0.00,,,0.00,WUHU216HW,2013-03-08 03:45:00,
2013-03-07 20:50:00,64.1,25.2,27.29,ESE,113,1.1,2.2,23,0.00,,,0.00,WUHU216HW,2013-03-08 03:50:00,
2013-03-07 20:55:00,63.7,24.8,27.29,ENE,68,1.1,2.2,23,0.00,,,0.00,WUHU216HW,2013-03-08 03:55:00,
2013-03-07 21:00:00,63.2,24.4,27.29,ESE,113,0.4,2.2,23,0.00,,,0.00,WUHU216HW,2013-03-08 04:00:00,
2013-03-07 21:05:00,62.8,24.1,27.28,ENE,68,0.9,2.2,23,0.00,,,0.00,WUHU216HW,2013-03-08 04:05:00,
2013-03-07 21:10:00,62.5,24.9,27.28,ENE,68,0.4,1.6,24,0.00,,,0.00,WUHU216HW,2013-03-08 04:10:00,
2013-03-07 21:15:00,62.5,24.9,27.29,ENE,68,0.0,1.6,24,0.00,,,0.00,WUHU216HW,2013-03-08 04:15:00,
2013-03-07 21:20:00,62.3,24.7,27.29,ESE,113,0.7,1.3,24,0.00,,,0.00,WUHU216HW,2013-03-08 04:20:00,
2013-03-07 21:25:00,62.5,25.7,27.29,ESE,113,1.1,1.8,25,0.00,,,0.00,WUHU216HW,2013-03-08 04:25:00,
2013-03-07 21:30:00,62.5,25.7,27.29,ESE,113,0.9,2.2,25,0.00,,,0.00,WUHU216HW,2013-03-08 04:30:00,
2013-03-07 21:35:00,62.6,25.9,27.29,East,90,0.9,2.2,25,0.00,,,0.00,WUHU216HW,2013-03-08 04:35:00,
2013-03-07 21:40:00,63.0,25.3,27.29,ESE,113,0.4,2.7,24,0.00,,,0.00,WUHU216HW,2013-03-08 04:40:00,
2013-03-07 21:45:00,63.2,25.4,27.29,ESE,113,0.7,2.7,24,0.00,,,0.00,WUHU216HW,2013-03-08 04:45:00,
2013-03-07 21:50:00,63.4,25.6,27.29,East,90,2.2,2.2,24,0.00,,,0.00,WUHU216HW,2013-03-08 04:50:00,
2013-03-07 21:55:00,63.2,26.4,27.29,ESE,113,1.1,2.2,25,0.00,,,0.00,WUHU216HW,2013-03-08 04:55:00,
2013-03-07 22:00:00,63.2,26.4,27.29,SE,135,1.1,2.2,25,0.00,,,0.00,WUHU216HW,2013-03-08 05:00:00,
2013-03-07 22:01:00,63.2,26.4,27.29,SE,135,1.1,2.5,25,0.00,,,0.00,WUHU216HW,2013-03-08 05:01:00,
2013-03-07 22:06:00,63.0,26.2,27.29,SE,135,0.4,2.5,25,0.00,,,0.00,WUHU216HW,2013-03-08 05:06:00,
2013-03-07 22:11:00,63.2,26.4,27.29,SSE,158,0.9,2.5,25,0.00,,,0.00,WUHU216HW,2013-03-08 05:11:00,
2013-03-07 22:16:00,63.2,26.4,27.29,SE,135,1.1,2.5,25,0.00,,,0.00,WUHU216HW,2013-03-08 05:16:00,
2013-03-07 22:21:00,63.2,26.4,27.29,SE,135,0.4,1.8,25,0.00,,,0.00,WUHU216HW,2013-03-08 05:21:00,
2013-03-07 22:26:00,63.0,26.2,27.29,SE,135,0.7,1.8,25,0.00,,,0.00,WUHU216HW,2013-03-08 05:26:00,
2013-03-07 22:31:00,63.0,26.2,27.29,ESE,113,0.2,1.8,25,0.00,,,0.00,WUHU216HW,2013-03-08 05:31:00,
2013-03-07 22:36:00,63.0,26.2,27.29,ESE,113,0.9,1.8,25,0.00,,,0.00,WUHU216HW,2013-03-08 05:36:00,
2013-03-07 22:41:00,62.8,26.1,27.29,ESE,113,0.4,1.8,25,0.00,,,0.00,WUHU216HW,2013-03-08 05:41:00,
2013-03-07 22:46:00,62.6,26.9,27.29,East,90,0.7,1.3,26,0.00,,,0.00,WUHU216HW,2013-03-08 05:46:00,
2013-03-07 22:51:00,62.6,26.9,27.29,ESE,113,0.9,1.6,26,0.00,,,0.00,WUHU216HW,2013-03-08 05:51:00,
2013-03-07 22:56:00,62.5,25.7,27.28,ESE,113,0.4,1.6,25,0.00,,,0.00,WUHU216HW,2013-03-08 05:56:00,
2013-03-07 23:01:00,62.5,25.7,27.28,ESE,113,0.9,1.1,25,0.00,,,0.00,WUHU216HW,2013-03-08 06:01:00,
2013-03-07 23:06:00,62.5,25.7,27.28,SE,135,0.2,1.1,25,0.00,,,0.00,WUHU216HW,2013-03-08 06:06:00,
2013-03-07 23:11:00,62.5,25.7,27.29,SE,135,0.4,1.1,25,0.00,,,0.00,WUHU216HW,2013-03-08 06:11:00,
2013-03-07 23:16:00,62.5,25.7,27.29,SE,135,0.0,1.1,25,0.00,,,0.00,WUHU216HW,2013-03-08 06:16:00,
2013-03-07 23:21:00,62.3,25.7,27.29,SE,135,0.0,0.4,25,0.00,,,0.00,WUHU216HW,2013-03-08 06:21:00,
2013-03-07 23:26:00,62.1,25.5,27.28,SE,135,0.0,0.2,25,0.00,,,0.00,WUHU216HW,2013-03-08 06:26:00,
2013-03-07 23:31:00,61.9,25.3,27.28,South,180,0.4,0.7,25,0.00,,,0.00,WUHU216HW,2013-03-08 06:31:00,
2013-03-07 23:36:00,61.9,26.3,27.28,SW,225,1.1,1.1,26,0.00,,,0.00,WUHU216HW,2013-03-08 06:36:00,
2013-03-07 23:41:00,62.1,27.4,27.28,WSW,248,1.1,1.8,27,0.00,,,0.00,WUHU216HW,2013-03-08 06:41:00,
2013-03-07 23:46:00,62.1,27.4,27.28,NW,315,1.1,1.8,27,0.00,,,0.00,WUHU216HW,2013-03-08 06:46:00,
2013-03-07 23:51:00,61.9,27.3,27.28,SW,225,0.0,1.1,27,0.00,,,0.00,WUHU216HW,2013-03-08 06:51:00,
2013-03-07 23:56:00,61.6,27.9,27.28,WSW,248,0.7,1.1,28,0.00,,,0.00,WUHU216HW,2013-03-08 06:56:00,